BEIDOU-3 M8 (C28)

Last updated on Mon Oct 20 2025 00:03:25 GMT+0000 (Coordinated Universal Time)

1 43108U 18003B 25291.66677074 -.00000063 00000+0 00000+0 0 9998 2 43108 54.5373 310.7131 0004980 262.9205 97.0628 1.86231036 52861
UTC large
Height (km)
Speed (km/s)
/
Latitude / Longitude
Inclination (degrees)
Orbital Period (minutes)
Azimuth
Elevation
Range (km)
Doppler Factor

Next 0 passes for location: London (51.5072 / 0.1276)

Sorry there are no passes over London.